Weather History for PHMK - November, 2012

Change the Weather History Date:

Saturday, November 17, 2012

  Actual Average Record
Temperature  
Mean Temperature 76 °F -  
Max Temperature 79 °F 82 °F 89 °F (1987)
Min Temperature 72 °F 68 °F 61 °F (2010)
Cooling Degree Days 10    
Growing Degree Days 26 (Base 50)    
Moisture  
Dew Point 61 °F    
Average Humidity 62    
Maximum Humidity 73    
Minimum Humidity 48    
Precipitation  
Precipitation 0.00 in - - ()
Sea Level Pressure  
Sea Level Pressure 30.08 in    
Wind  
Wind Speed 12 mph (NE)    
Max Wind Speed 18 mph    
Max Gust Speed 32 mph    
Visibility 10 miles    
Events Rain    
Averages and records for this station are not official NWS values.
T = Trace of Precipitation, MM = Missing Value Source: NWS Daily Summary

Daily Weather History Graph

Daily Weather History Graph

Search for Another Location

Airport or City:

Trip Planner

Search our weather history database for the weather conditions in past years. The results will help you decide how hot, cold, wet, or windy it might be!

Date:

Astronomy

Nov. 17, 2012 Rise Set
Actual Time 6:40 AM HST 5:46 PM HST
Civil Twilight 6:17 AM HST 6:09 PM HST
Nautical Twilight 5:50 AM HST 6:36 PM HST
Astronomical Twilight 5:23 AM HST 7:03 PM HST
Moon 10:34 AM HST (11/17) 10:05 PM HST (11/17)
Length of Visible Light 11h 52m
Length of Day
11h 05m
Waxing Crescent, 22% of the Moon is Illuminated
Nov 17
Waxing Crescent
Nov 20
First Quarter
Nov 28
Full
Dec 6
Last Quarter
Dec 12
New

Hourly Weather History & Observations

Time (HST) Temp. Dew Point Humidity Pressure Visibility Wind Dir Wind Speed Gust Speed Precip Events Conditions
12:54 AM 73.0 °F 62.1 °F 68% 30.09 in 10.0 mi ENE 11.5 mph 21.9 mph N/A   Clear
1:54 AM 72.0 °F 62.1 °F 71% 30.08 in 10.0 mi NE 11.5 mph 20.7 mph N/A   Clear
2:54 AM 72.0 °F 62.1 °F 71% 30.07 in 10.0 mi NE 11.5 mph - 0.00 in Rain Light Rain
3:54 AM 72.0 °F 60.1 °F 66% 30.06 in 10.0 mi NNE 9.2 mph - 0.00 in   Clear
4:54 AM 72.0 °F 63.0 °F 73% 30.05 in 10.0 mi NE 9.2 mph 17.3 mph N/A   Clear
5:54 AM 73.0 °F 57.9 °F 59% 30.06 in 10.0 mi NE 8.1 mph - N/A   Clear
6:54 AM 73.0 °F 57.9 °F 59% 30.08 in 10.0 mi NE 6.9 mph - N/A   Clear
7:54 AM 73.9 °F 57.9 °F 57% 30.09 in 10.0 mi ENE 10.4 mph - N/A   Clear
8:54 AM 75.9 °F 59.0 °F 56% 30.08 in 10.0 mi NE 16.1 mph 21.9 mph N/A   Mostly Cloudy
9:54 AM 78.1 °F 57.0 °F 48% 30.09 in 10.0 mi NE 10.4 mph - N/A   Clear
10:54 AM 79.0 °F 59.0 °F 50% 30.08 in 10.0 mi NE 13.8 mph 23.0 mph N/A   Mostly Cloudy
11:54 AM 79.0 °F 60.1 °F 52% 30.06 in 10.0 mi NE 17.3 mph 25.3 mph N/A   Mostly Cloudy
12:54 PM 78.1 °F 60.1 °F 54% 30.05 in 10.0 mi NE 13.8 mph 20.7 mph N/A   Clear
1:54 PM 79.0 °F 61.0 °F 54% 30.03 in 10.0 mi NE 13.8 mph 21.9 mph N/A   Mostly Cloudy
2:54 PM 78.1 °F 61.0 °F 56% 30.04 in 10.0 mi NE 15.0 mph 25.3 mph N/A   Clear
3:54 PM 78.1 °F 61.0 °F 56% 30.04 in 10.0 mi NE 15.0 mph 25.3 mph N/A   Mostly Cloudy
4:54 PM 75.0 °F 64.0 °F 69% 30.05 in 10.0 mi NE 18.4 mph 31.1 mph N/A   Mostly Cloudy
5:54 PM 73.9 °F 62.1 °F 66% 30.06 in 10.0 mi NE 17.3 mph 32.2 mph N/A   Mostly Cloudy
6:54 PM 73.9 °F 62.1 °F 66% 30.09 in 10.0 mi ENE 15.0 mph 25.3 mph N/A   Clear
7:54 PM 73.9 °F 63.0 °F 68% 30.12 in 10.0 mi NE 11.5 mph 21.9 mph N/A   Clear
8:54 PM 73.9 °F 62.1 °F 66% 30.12 in 10.0 mi NE 11.5 mph - N/A   Clear
9:54 PM 73.0 °F 61.0 °F 66% 30.12 in 10.0 mi NNE 5.8 mph - N/A   Clear
10:54 PM 73.9 °F 61.0 °F 64% 30.11 in 10.0 mi NE 11.5 mph - N/A   Clear
11:54 PM 73.9 °F 63.0 °F 68% 30.09 in 10.0 mi NE 11.5 mph 19.6 mph N/A   Clear